DateTimeUTC,F1_A11,F1_S11,BsB_S11,BsG_S11,BsR_S11,BbsB_S11,BbsG_S11,BbsR_S11,BaB_A11,BaG_A11,BaR_A11,Tu_S11,T_S11,Uu_S11,U_S11,P_S11,T1_A11
2021-12-11T14:00:00Z,00000200,21000000,,,,,,,-000.06,-000.03,0000.45,20.1,27.4,,00.0,0650.0,31.2
2021-12-11T14:01:00Z,00000200,21000000,,,,,,,0000.23,-000.06,-000.12,20.1,27.4,,00.0,0650.0,31.2
2021-12-11T14:02:00Z,00000200,21000000,,,,,,,0000.01,0000.20,0000.20,20.1,27.4,,00.0,0649.9,31.2
2021-12-11T14:03:00Z,00000200,61000000,,,,,,,0000.20,0000.45,-000.02,20.1,27.4,,00.0,0649.9,31.2
2021-12-11T14:04:00Z,00000200,41000000,-000.08,0000.63,0000.14,0000.37,0000.22,0000.35,0000.23,0000.13,0000.34,20.4,27.3,,00.0,0650.7,31.2
2021-12-11T14:05:00Z,00000200,01000000,0000.82,0000.12,0000.18,0000.01,0000.03,0000.53,-000.03,0000.12,-000.05,20.4,27.3,,00.0,0650.8,31.2
2021-12-11T14:06:00Z,00000200,01000000,0000.85,0000.36,-000.00,0000.43,0000.02,0000.17,0000.61,0000.45,0000.12,20.5,27.3,,00.0,0650.8,31.2
2021-12-11T14:07:00Z,00000200,01000000,-000.47,0000.21,0000.15,0000.66,0000.18,0000.42,-000.14,-000.24,0000.18,20.5,27.3,,00.0,0650.9,31.2
2021-12-11T14:08:00Z,00000200,01000000,0000.72,0000.38,0000.10,-000.11,0000.21,0000.29,0000.31,0000.53,0000.19,20.6,27.3,,00.0,0650.8,31.2
2021-12-11T14:09:00Z,00000200,01000000,0000.05,0000.18,0000.46,-000.69,0000.14,0000.28,0000.43,0000.08,0000.37,20.6,27.3,,00.0,0650.8,31.2
2021-12-11T14:10:00Z,00000200,01000000,-000.17,0000.28,-000.12,0000.06,-000.13,0000.31,0000.10,0000.36,0000.11,20.6,27.3,,00.0,0650.8,31.2
2021-12-11T14:11:00Z,00000200,01000000,-000.03,0000.23,0000.44,-000.22,0000.09,0000.38,0000.19,0000.06,0000.18,20.6,27.3,,00.0,0650.9,31.2
2021-12-11T14:12:00Z,00000200,01000000,0000.32,0000.43,-000.02,-000.41,-000.11,0000.39,0000.04,-000.12,0000.15,20.6,27.3,,00.0,0651.0,31.2
2021-12-11T14:13:00Z,00000200,01000000,0000.72,0000.07,0000.29,-000.46,-000.26,0000.28,0000.10,0000.16,-000.10,20.6,27.3,,00.0,0651.0,31.2
2021-12-11T14:14:00Z,00000200,01000000,0000.18,0000.25,0000.06,-000.35,-000.08,0000.05,0000.25,0000.21,-000.09,20.6,27.3,,00.0,0651.0,31.2
2021-12-11T14:15:00Z,00000200,01000000,0000.88,0000.19,-000.23,-000.22,-000.19,-000.16,0000.01,0000.14,0000.27,20.6,27.3,,00.0,0651.0,31.2
2021-12-11T14:16:00Z,00000200,01000000,0000.14,0000.25,0000.23,-000.25,0000.08,0000.02,0000.23,0000.43,0000.11,20.7,27.3,,00.0,0651.0,31.2
2021-12-11T14:17:00Z,00000200,01000000,-000.08,0000.27,0000.06,0000.11,0000.23,0000.25,0000.31,0000.22,0000.32,20.7,27.3,,00.0,0651.1,31.2
2021-12-11T14:18:00Z,00000200,01000000,0000.22,0000.31,0000.25,0000.02,0000.02,0000.16,0000.55,-000.11,0000.08,20.8,27.4,,00.0,0651.0,31.2
2021-12-11T14:19:00Z,00000200,01000000,0000.57,0000.69,0000.24,-000.02,0000.01,0000.30,-000.05,0000.50,0000.14,20.8,27.4,,00.0,0651.0,31.2
2021-12-11T14:20:00Z,00000200,01000000,0000.30,0000.60,0000.49,-000.11,0000.27,0000.46,-000.09,-000.09,-000.01,20.9,27.4,,00.0,0651.1,31.2
2021-12-11T14:21:00Z,00000200,01000000,-000.23,0000.14,0000.09,0000.01,0000.27,0000.29,0000.21,0000.24,0000.16,21.0,27.4,,00.0,0651.1,31.2
2021-12-11T14:22:00Z,00000200,01000000,0000.90,0000.04,0000.06,0000.09,-000.21,-000.24,0000.38,0000.08,0000.01,21.0,27.4,,00.0,0651.1,31.3
2021-12-11T14:23:00Z,00000200,01000000,0000.41,0000.40,0000.35,-000.67,-000.10,0000.48,0000.08,0000.24,0000.15,21.1,27.5,,00.0,0651.1,31.3
2021-12-11T14:24:00Z,00000200,01000000,-000.09,0000.19,-000.09,-000.49,-000.09,-000.05,0000.06,0000.04,0000.13,21.1,27.5,,00.0,0651.1,31.3
2021-12-11T14:25:00Z,00000200,01000000,0000.40,0000.46,0000.20,-000.26,0000.35,0000.37,-000.22,0000.04,0000.06,21.2,27.5,,00.0,0651.1,31.3
2021-12-11T14:26:00Z,00000200,01000000,0000.07,0000.58,0000.42,-000.24,0000.22,0000.28,0000.31,0000.07,0000.13,21.2,27.5,,00.0,0651.1,31.3
2021-12-11T14:27:00Z,00000200,01000000,-000.08,0000.55,0000.45,-000.06,0000.19,0000.32,-000.30,-000.30,-000.19,21.2,27.5,,00.0,0651.1,31.3
2021-12-11T14:28:00Z,00000200,01000000,0000.98,0000.43,-000.06,-000.20,0000.34,0000.19,0000.39,0000.08,0000.23,21.2,27.5,,00.0,0651.1,31.3
2021-12-11T14:29:00Z,00000200,01000000,0000.17,0000.11,0000.01,-000.02,-000.06,-000.03,0000.28,0000.31,-000.05,21.2,27.5,,00.0,0651.1,31.3
2021-12-11T14:30:00Z,00000200,01000000,0000.11,0000.32,0000.19,-000.19,0000.01,0000.23,0000.01,-000.02,0000.48,21.2,27.5,,00.0,0651.1,31.3
2021-12-11T14:31:00Z,00000200,01000000,0000.22,0000.27,0000.14,-000.22,0000.09,0000.15,0000.13,0000.17,-000.16,21.2,27.6,,00.0,0651.1,31.3
2021-12-11T14:32:00Z,00000200,01000000,0000.37,0000.37,0000.25,-000.13,0000.03,0000.49,0000.17,0000.44,0000.31,21.3,27.6,,00.0,0651.1,31.3
2021-12-11T14:33:00Z,00000200,01000000,-000.15,0000.51,0000.23,-000.56,0000.20,-000.03,0000.32,0000.27,0000.27,21.3,27.6,,00.0,0651.2,31.3
2021-12-11T14:34:00Z,00000200,01000000,0000.34,0000.43,0000.29,0000.44,0000.21,0000.15,-000.07,-000.27,-000.36,21.4,27.6,,00.0,0651.2,31.3
2021-12-11T14:35:00Z,00000200,01000000,0000.17,0000.30,0000.26,-000.66,-000.11,0000.42,0000.09,0000.36,0000.55,21.4,27.6,,00.0,0651.2,31.3
2021-12-11T14:36:00Z,00000200,01000000,0000.42,0000.71,0000.13,-000.48,-000.01,0000.19,0000.14,-000.05,-000.20,21.5,27.7,,00.0,0651.2,31.4
2021-12-11T14:37:00Z,00000200,01000000,-000.29,0000.46,-000.01,-000.03,0000.03,0000.20,0000.08,0000.09,0000.16,21.5,27.7,,00.0,0651.2,31.4
2021-12-11T14:38:00Z,00000200,01000000,-000.16,-000.07,-000.12,-000.24,-000.07,0000.04,-000.01,0000.29,0000.24,21.5,27.7,,00.0,0651.2,31.4
2021-12-11T14:39:00Z,00000200,01000000,0000.13,0000.67,0000.12,0000.11,-000.05,0000.20,0000.64,-000.11,-000.29,21.5,27.7,,00.0,0651.2,31.4
2021-12-11T14:40:00Z,00000200,01000000,0000.17,0000.20,0000.30,-000.43,0000.28,0000.30,-000.21,0000.36,0000.54,21.6,27.8,,00.0,0651.2,31.4
2021-12-11T14:41:00Z,00000200,01000000,0000.03,0000.16,0000.10,-000.28,0000.04,0000.22,0000.19,0000.12,-000.23,21.6,27.8,,00.0,0651.2,31.4
2021-12-11T14:42:00Z,00000200,01000000,0000.09,0000.83,0000.29,0000.05,-000.26,0000.40,0000.04,0000.27,0000.05,21.6,27.8,,00.0,0651.1,31.4
2021-12-11T14:43:00Z,00000200,01000000,-000.20,0000.20,0000.45,0000.18,-000.21,0000.27,0000.45,-000.10,-000.02,21.6,27.8,,00.0,0651.1,31.4
2021-12-11T14:44:00Z,00000200,01000000,0000.16,0000.42,0000.30,-000.61,-000.18,0000.42,-000.13,0000.46,0000.47,21.6,27.8,,00.0,0651.1,31.4
2021-12-11T14:45:00Z,00000200,01000000,0001.27,0000.32,-000.15,-000.35,0000.32,0000.02,0000.53,-000.17,-000.01,21.6,27.8,,00.0,0651.1,31.4
2021-12-11T14:46:00Z,00000200,01000000,0000.32,0000.44,0000.07,0000.44,0000.21,0000.07,-000.15,0000.57,0000.33,21.6,27.8,,00.0,0651.1,31.5
2021-12-11T14:47:00Z,00000200,01000000,-000.16,0000.25,0000.44,-000.47,-000.14,0000.47,0000.54,0000.20,0000.22,21.6,27.8,,00.0,0651.1,31.5
2021-12-11T14:48:00Z,00000200,01000000,-000.74,0000.45,0000.23,0000.52,0000.16,0000.23,0000.24,-000.04,-000.16,21.6,27.8,,00.0,0651.1,31.5
2021-12-11T14:49:00Z,00000200,01000000,0000.20,0000.03,0000.22,-000.18,-000.07,0000.47,-000.03,-000.14,0000.21,21.7,27.9,,00.0,0651.1,31.5
2021-12-11T14:50:00Z,00000200,01000000,0000.20,0000.35,0000.32,0000.23,-000.32,0000.51,0000.47,0000.46,0000.22,21.7,27.9,,00.0,0651.1,31.5
2021-12-11T14:51:00Z,00000200,01000000,0000.45,0000.64,-000.19,-000.12,0000.19,0000.14,-000.21,-000.00,0000.21,21.7,27.9,,00.0,0651.1,31.5
2021-12-11T14:52:00Z,00000200,01000000,0000.12,0000.20,0000.06,-000.43,-000.02,-000.07,0000.08,-000.14,-000.05,21.7,27.9,,00.0,0651.1,31.5
2021-12-11T14:53:00Z,00000200,01000000,0000.55,0000.21,-000.03,-000.34,0000.28,0000.19,0000.54,0000.61,0000.20,21.6,27.9,,00.0,0651.1,31.5
2021-12-11T14:54:00Z,00000200,01000000,0000.04,0000.28,0000.48,-000.66,0000.55,0000.54,0000.47,0000.40,-000.45,21.6,27.9,,00.0,0651.1,31.5
2021-12-11T14:55:00Z,00000200,01000000,0000.08,0000.32,0000.37,-000.12,0000.19,0000.21,0000.01,-000.15,0000.86,21.5,27.8,,00.0,0651.1,31.4
2021-12-11T14:56:00Z,00000200,01000000,-000.51,0000.17,0000.22,-000.35,-000.01,0000.06,-000.12,-000.01,0000.14,21.4,27.8,,00.0,0651.1,31.4
2021-12-11T14:57:00Z,00000200,41000000,,,,,,,0000.23,0000.25,-000.35,21.4,27.8,,00.0,0651.1,31.4
2021-12-11T14:58:00Z,00000200,61000000,,,,,,,-000.21,-000.25,0000.01,21.0,27.8,,00.0,0650.1,31.4
2021-12-11T14:59:00Z,00000200,21000000,,,,,,,-000.14,0000.14,0000.20,20.9,27.9,,00.0,0650.1,31.3
